Flag for Macedonia, Republic of Weather past 2 weeks in Skopje, Macedonia, Republic of

Now
61 °F

Passing clouds.


Feels Like: 61 °F
Forecast: 56 / 85 °F
Wind: 2 mph from Southeast

Location: Skopje-Petrovec

Current Time: Jul 1, 2015 at 4:45:28 AM

Latest Report: Jul 1, 2015 at 4:00 AM


Visibility: N/A

Pressure: 30.12 "Hg

Humidity: 88%

Dew point: 57 °F

Location of SkopjeLocation

Historic Weather in Skopje — Graph

°F

Skopje temperature yesterday

Maximum temperature yesterday: 73 °F (at 4:00 PM)
Minimum temperature yesterday: 61 °F (at 2:00 AM)
Average temperature yesterday: 67 °F

Past Weeks' High & Low Weather Summary

 TemperatureHumidityPressure
High88 °F (Jun 16, 3:00 PM)94% (Jun 18, 5:00 AM)30.18 "Hg (Jun 18, 5:00 AM)
Low48 °F (Jun 23, 5:00 AM)25% (Jun 23, 4:30 PM)29.80 "Hg (Jun 19, 3:00 PM)
Average67 °F62%29.97 "Hg
* Reported Jun 16 3:00 AM — Jul 1 3:00 AM, Skopje, Weather by CustomWeather, © 2015

Note: Actual official high and low records may vary slightly from our data, if they occured in-between our weather recording intervals... More about our weather records

Advertising

Skopje weather history for previous 24 hours

 ConditionsComfort  
Time TempWeatherWind HumidityBarometerVisibility
3:00 AM
Wed, Jul 1
61 °FPassing clouds.No wind88%30.12 "HgN/A
2:00 AM61 °FPassing clouds.No wind88%30.15 "HgN/A
1:30 AM61 °FPassing clouds.2 mph88%30.15 "HgN/A
1:00 AM63 °FPassing clouds.No wind83%30.15 "HgN/A
12:30 AM63 °FPassing clouds.1 mph83%30.15 "HgN/A
12:00 AM64 °FPassing clouds.1 mph83%30.15 "HgN/A
11:30 PM
Tue, Jun 30
64 °FPassing clouds.1 mph78%30.15 "HgN/A
11:00 PM66 °FPassing clouds.2 mph73%30.15 "HgN/A
10:30 PM68 °FPassing clouds.1 mph69%30.15 "HgN/A
10:00 PM66 °FPartly cloudy.2 mph73%30.15 "HgN/A
9:30 PM68 °FPartly cloudy.6 mph69%30.12 "HgN/A
9:00 PM68 °FBroken clouds.3 mph69%30.12 "HgN/A
8:30 PM68 °FBroken clouds.3 mph69%30.12 "HgN/A
8:00 PM70 °FBroken clouds.5 mph60%30.09 "HgN/A
7:00 PM72 °FBroken clouds.5 mph61%30.09 "HgN/A
6:30 PM72 °FBroken clouds.5 mph57%30.09 "HgN/A
6:00 PM72 °FBroken clouds.6 mph57%30.09 "HgN/A
5:00 PM72 °FBroken clouds.7 mph57%30.09 "HgN/A
4:30 PM72 °FBroken clouds.8 mph61%30.09 "HgN/A
4:00 PM73 °FBroken clouds.8 mph57%30.09 "HgN/A
3:00 PM72 °FBroken clouds.6 mph57%30.09 "HgN/A
2:30 PM72 °FScattered clouds.5 mph57%30.09 "HgN/A
2:00 PM72 °FDrizzle. Broken clouds.12 mph57%30.09 "HgN/A
1:30 PM70 °FDrizzle. Broken clouds.6 mph64%30.09 "HgN/A
1:00 PM70 °FDrizzle. Broken clouds.9 mph69%30.12 "HgN/A
12:30 PM70 °FLight rain. Broken clouds.9 mph69%30.12 "HgN/A
12:00 PM68 °FDrizzle. Mostly cloudy.9 mph73%30.12 "HgN/A
11:30 AM66 °FLight rain. Mostly cloudy.7 mph78%30.12 "HgN/A
11:00 AM64 °FLight rain. Mostly cloudy.7 mph83%30.12 "HgN/A
10:30 AM63 °FDrizzle. Mostly cloudy.8 mph88%30.12 "HgN/A
10:00 AM66 °FDrizzle. Mostly cloudy.7 mph78%30.12 "HgN/A
9:30 AM66 °FLight rain. Broken clouds.7 mph73%30.12 "HgN/A
9:00 AM68 °FBroken clouds.6 mph69%30.12 "HgN/A
8:30 AM68 °FMostly cloudy.6 mph69%30.09 "HgN/A
8:00 AM68 °FMostly cloudy.7 mph69%30.09 "HgN/A
7:30 AM66 °FPartly sunny.9 mph73%30.09 "HgN/A
7:00 AM64 °FPartly sunny.2 mph78%30.09 "HgN/A
4:30 AM61 °FPassing clouds.No wind83%30.09 "HgN/A
Weather by CustomWeather, © 2015

See weather overviewHow to use our weather pages